| time (UTC) | temp C | wind direction | speed KPH | gust KPH | rain 1hr cm | rain 24hr cm | rain mn cm | humidity % | barometer mb |
| 20260510104557 | 19 | 71 | 0.0 | 6.4 | 0.00 | 2.34 | 0.00 | 97 | 1014.6 |
| 20260510103048 | 19 | 91 | 0.0 | 3.2 | 0.00 | 2.34 | 0.00 | 97 | 1014.4 |
| 20260510101553 | 19 | 67 | 0.0 | 8.0 | 0.00 | 2.34 | 0.00 | 97 | 1014.2 |
| 20260510100054 | 19 | 0 | 0.0 | 8.0 | 0.00 | 2.34 | 0.00 | 97 | 1014.1 |
| 20260510094614 | 19 | 0 | 1.6 | 6.4 | 0.00 | 2.34 | 0.00 | 97 | 1013.9 |
| 20260510093052 | 19 | 0 | 0.0 | 6.4 | 0.00 | 2.34 | 0.00 | 97 | 1013.8 |
| 20260510091555 | 19 | 0 | 0.0 | 6.4 | 0.00 | 2.34 | 0.00 | 97 | 1013.6 |
| 20260510090052 | 20 | 0 | 0.0 | 6.4 | 0.00 | 2.34 | 0.00 | 97 | 1013.9 |
| 20260510084559 | 19 | 0 | 0.0 | 4.8 | 0.00 | 2.34 | 0.00 | 97 | 1013.9 |
| 20260510083111 | 19 | 50 | 0.0 | 6.4 | 0.00 | 2.34 | 0.00 | 97 | 1013.9 |
| 20260510081605 | 19 | 0 | 0.0 | 3.2 | 0.00 | 2.34 | 0.00 | 97 | 1013.8 |
| 20260510080044 | 19 | 0 | 0.0 | 0.0 | 0.00 | 2.34 | 0.00 | 97 | 1013.9 |
| 20260510074542 | 19 | 0 | 0.0 | 0.0 | 0.00 | 2.34 | 0.00 | 97 | 1013.7 |
| 20260510073051 | 19 | 0 | 0.0 | 0.0 | 0.00 | 2.34 | 0.00 | 97 | 1013.6 |
| 20260510071547 | 19 | 0 | 0.0 | 0.0 | 0.00 | 2.34 | 0.00 | 97 | 1013.5 |
| 20260510070049 | 19 | 0 | 0.0 | 0.0 | 0.00 | 2.34 | 0.00 | 97 | 1013.6 |
| 20260510064547 | 19 | 0 | 0.0 | 0.0 | 0.00 | 2.34 | 0.00 | 97 | 1013.6 |
| 20260510063046 | 19 | 0 | 0.0 | 0.0 | 0.00 | 2.34 | 0.00 | 97 | 1013.5 |
| 20260510061556 | 19 | 0 | 0.0 | 0.0 | 0.00 | 2.34 | 0.00 | 97 | 1013.7 |
| 20260510060050 | 19 | 0 | 0.0 | 0.0 | 0.00 | 2.34 | 0.00 | 97 | 1013.6 |
| 20260510054546 | 19 | 0 | 0.0 | 0.0 | 0.00 | 2.34 | 0.00 | 97 | 1013.5 |
| 20260510053056 | 19 | 0 | 0.0 | 0.0 | 0.00 | 2.34 | 0.00 | 97 | 1013.7 |
| 20260510051551 | 19 | 0 | 0.0 | 0.0 | 0.00 | 2.34 | 0.00 | 97 | 1013.7 |
| 20260510050055 | 19 | 0 | 0.0 | 0.0 | 0.00 | 2.34 | 0.00 | 97 | 1013.7 |
| 20260510044548 | 20 | 0 | 0.0 | 3.2 | 0.00 | 2.34 | 2.34 | 97 | 1013.7 |
| 20260510043053 | 20 | 0 | 0.0 | 1.6 | 0.00 | 2.34 | 2.34 | 97 | 1013.7 |
| 20260510041552 | 20 | 0 | 0.0 | 3.2 | 0.00 | 2.34 | 2.34 | 97 | 1013.9 |
| 20260510040055 | 20 | 0 | 0.0 | 8.0 | 0.00 | 2.34 | 2.34 | 97 | 1013.5 |
| 20260510034558 | 20 | 242 | 1.6 | 6.4 | 0.00 | 2.34 | 2.34 | 97 | 1013.6 |
| 20260510033046 | 20 | 0 | 0.0 | 9.7 | 0.00 | 2.34 | 2.34 | 97 | 1013.9 |
| 20260510031600 | 20 | 0 | 1.6 | 8.0 | 0.00 | 2.34 | 2.34 | 97 | 1013.6 |
| 20260510030052 | 20 | 166 | 1.6 | 9.7 | 0.00 | 2.34 | 2.34 | 97 | 1013.8 |
| 20260510024548 | 20 | 153 | 0.0 | 4.8 | 0.00 | 2.34 | 2.34 | 97 | 1014.0 |
| 20260510023049 | 20 | 0 | 0.0 | 4.8 | 0.00 | 2.34 | 2.34 | 97 | 1013.8 |
| 20260510021547 | 20 | 0 | 0.0 | 4.8 | 0.00 | 2.34 | 2.34 | 97 | 1013.6 |
| 20260510020047 | 20 | 0 | 0.0 | 6.4 | 0.00 | 2.34 | 2.34 | 97 | 1013.8 |
| 20260510014552 | 20 | 0 | 0.0 | 6.4 | 0.00 | 2.34 | 2.34 | 97 | 1013.9 |
| 20260510013050 | 20 | 0 | 0.0 | 9.7 | 0.00 | 2.34 | 2.34 | 97 | 1013.4 |
| 20260510011546 | 20 | 0 | 0.0 | 6.4 | 0.00 | 2.34 | 2.34 | 97 | 1013.5 |
| 20260510010048 | 20 | 0 | 0.0 | 6.4 | 0.00 | 2.34 | 2.34 | 97 | 1013.6 |
| 20260510004551 | 20 | 98 | 0.0 | 3.2 | 0.00 | 2.34 | 2.34 | 97 | 1013.5 |
| 20260510003051 | 20 | 0 | 0.0 | 1.6 | 0.00 | 2.34 | 2.34 | 97 | 1013.6 |
| 20260510001554 | 20 | 0 | 0.0 | 1.6 | 0.00 | 2.34 | 2.34 | 97 | 1013.5 |
| 20260510000044 | 20 | 0 | 0.0 | 3.2 | 0.00 | 2.34 | 2.34 | 97 | 1013.0 |
| 20260509234541 | 20 | 0 | 0.0 | 6.4 | 0.00 | 2.34 | 2.34 | 97 | 1012.8 |
| 20260509233043 | 20 | 0 | 0.0 | 4.8 | 0.00 | 2.34 | 2.34 | 97 | 1012.4 |
| 20260509231555 | 20 | 0 | 0.0 | 4.8 | 0.03 | 2.34 | 2.34 | 97 | 1012.3 |
| 20260509230047 | 20 | 0 | 0.0 | 3.2 | 0.03 | 2.34 | 2.34 | 97 | 1012.3 |
| 20260509224550 | 20 | 46 | 0.0 | 4.8 | 0.05 | 2.34 | 2.34 | 97 | 1012.1 |
| 20260509223052 | 20 | 40 | 0.0 | 9.7 | 0.18 | 2.34 | 2.34 | 97 | 1011.1 |
| 20260509221551 | 20 | 0 | 0.0 | 6.4 | 0.38 | 2.31 | 2.31 | 97 | 1011.6 |
| 20260509220055 | 20 | 0 | 0.0 | 8.0 | 0.46 | 2.31 | 2.31 | 97 | 1011.9 |
| 20260509214545 | 20 | 128 | 0.0 | 6.4 | 0.51 | 2.36 | 2.29 | 97 | 1012.1 |
| 20260509213053 | 20 | 74 | 0.0 | 4.8 | 0.41 | 2.21 | 2.13 | 97 | 1012.5 |
| 20260509211549 | 20 | 159 | 1.6 | 9.7 | 0.23 | 2.01 | 1.93 | 97 | 1012.2 |
| 20260509210052 | 20 | 78 | 0.0 | 6.4 | 0.20 | 1.93 | 1.85 | 97 | 1012.4 |
| 20260509204553 | 20 | 0 | 1.6 | 11.3 | 0.25 | 2.36 | 1.78 | 97 | 1012.8 |
| 20260509203050 | 20 | 70 | 1.6 | 12.9 | 0.48 | 2.31 | 1.73 | 97 | 1013.1 |
| 20260509201545 | 20 | 0 | 0.0 | 4.8 | 0.46 | 2.29 | 1.70 | 97 | 1012.7 |
| 20260509200101 | 20 | 0 | 0.0 | 16.1 | 0.43 | 2.24 | 1.65 | 97 | 1012.8 |
| 20260509194557 | 20 | 61 | 3.2 | 11.3 | 0.33 | 2.46 | 1.47 | 97 | 1013.1 |
| 20260509193053 | 20 | 0 | 0.0 | 8.0 | 0.38 | 2.21 | 1.24 | 97 | 1013.1 |
| 20260509191547 | 20 | 93 | 0.0 | 9.7 | 0.43 | 2.21 | 1.24 | 97 | 1012.6 |
| 20260509190054 | 20 | 0 | 1.6 | 14.5 | 0.51 | 2.18 | 1.22 | 97 | 1012.6 |
| 20260509184633 | 19 | 140 | 1.6 | 12.9 | 0.51 | 2.77 | 1.14 | 97 | 1012.7 |
| 20260509183058 | 19 | 53 | 1.6 | 12.9 | 0.36 | 2.49 | 0.86 | 96 | 1012.6 |
| 20260509181548 | 19 | 144 | 1.6 | 12.9 | 0.76 | 2.44 | 0.81 | 96 | 1013.1 |
| 20260509180100 | 19 | 52 | 1.6 | 8.0 | 0.66 | 2.34 | 0.71 | 96 | 1013.3 |
| 20260509174549 | 19 | 69 | 1.6 | 11.3 | 0.58 | 2.51 | 0.64 | 96 | 1013.3 |
| 20260509173054 | 19 | 0 | 0.0 | 19.3 | 0.48 | 2.36 | 0.48 | 95 | 1012.6 |
| 20260509171546 | 19 | 51 | 1.6 | 6.4 | 0.05 | 1.93 | 0.05 | 95 | 1013.0 |
| 20260509170058 | 20 | 0 | 0.0 | 9.7 | 0.05 | 1.93 | 0.05 | 95 | 1013.2 |
| 20260509164551 | 20 | 0 | 0.0 | 6.4 | 0.05 | 2.34 | 0.05 | 95 | 1012.9 |
| 20260509163105 | 20 | 0 | 3.2 | 17.7 | 0.00 | 2.29 | 0.00 | 95 | 1013.0 |
| 20260509161547 | 20 | 0 | 1.6 | 20.9 | 0.00 | 2.29 | 0.00 | 95 | 1013.1 |
| 20260509160049 | 20 | 54 | 4.8 | 17.7 | 0.00 | 2.29 | 0.00 | 95 | 1013.3 |
| 20260509154546 | 20 | 120 | 1.6 | 11.3 | 0.00 | 2.62 | 0.00 | 96 | 1013.3 |
| 20260509153044 | 20 | 0 | 1.6 | 8.0 | 0.00 | 2.62 | 0.00 | 96 | 1013.3 |
| 20260509151555 | 19 | 9 | 1.6 | 16.1 | 0.00 | 2.62 | 0.00 | 96 | 1013.0 |
| 20260509150054 | 19 | 0 | 0.0 | 11.3 | 0.00 | 2.62 | 0.00 | 96 | 1013.2 |
| 20260509144549 | 19 | 113 | 1.6 | 14.5 | 0.00 | 3.10 | 0.00 | 96 | 1013.0 |
| 20260509143050 | 19 | 62 | 4.8 | 22.5 | 0.00 | 3.10 | 0.00 | 96 | 1012.8 |
| 20260509141555 | 20 | 72 | 11.3 | 19.3 | 0.00 | 3.10 | 0.00 | 96 | 1012.6 |
| 20260509140057 | 20 | 76 | 1.6 | 14.5 | 0.00 | 3.10 | 0.00 | 96 | 1012.8 |
| 20260509134545 | 20 | 46 | 1.6 | 8.0 | 0.00 | 3.10 | 0.00 | 96 | 1012.6 |
| 20260509133048 | 20 | 49 | 3.2 | 12.9 | 0.00 | 3.10 | 0.00 | 96 | 1012.4 |
| 20260509131548 | 20 | 0 | 3.2 | 14.5 | 0.00 | 3.10 | 0.00 | 96 | 1012.4 |
| 20260509130051 | 21 | 0 | 3.2 | 12.9 | 0.00 | 3.10 | 0.00 | 96 | 1012.4 |
| 20260509124558 | 22 | 49 | 1.6 | 8.0 | 0.00 | 3.10 | 0.00 | 96 | 1012.6 |
| 20260509123054 | 22 | 0 | 0.0 | 4.8 | 0.00 | 3.10 | 0.00 | 96 | 1012.1 |
| 20260509121551 | 22 | 0 | 0.0 | 1.6 | 0.00 | 3.10 | 0.00 | 97 | 1011.9 |
| 20260509120048 | 22 | 5 | 0.0 | 0.0 | 0.00 | 3.10 | 0.00 | 97 | 1011.9 |
| 20260509114550 | 22 | 0 | 0.0 | 0.0 | 0.00 | 3.10 | 0.00 | 96 | 1011.9 |
| 20260509113106 | 22 | 0 | 0.0 | 0.0 | 0.00 | 3.10 | 0.00 | 96 | 1011.8 |
| 20260509111549 | 22 | 0 | 0.0 | 0.0 | 0.00 | 3.10 | 0.00 | 96 | 1011.5 |
| 20260509110048 | 22 | 0 | 0.0 | 0.0 | 0.00 | 3.10 | 0.00 | 97 | 1011.3 |